This demonstration page uses our WeatherBlox Daily Observations layout. Learn more.

Left ArrowRight Arrow

Hourly Observations for July 10, 2021

Temp ( °F °C ) Dew Point ( °F °C ) Humidity (%) Winds ( mph kmh ) Pressure ( in mb ) Visibility ( mi km ) Precip ( " mm )
12:53 am 00:53 Clear 59 15 52 11.1 78 78 SSW 3 6 30.08 1019 10 16 0.00 0.00
1:53 am 01:53 Clear 60 15.6 52 11.1 75 75 S 5 7 30.08 1019 10 16 0.00 0.00
2:53 am 02:53 Clear 57 13.9 52 11.1 83 83 SW 3 6 30.10 1019 10 16 0.00 0.00
3:53 am 03:53 Clear 55 12.8 51 10.6 87 87 W 3 6 30.11 1020 10 16 0.00 0.00
4:53 am 04:53 Clear 53 11.7 51 10.6 93 93 WSW 6 9 30.13 1020 10 16 0.00 0.00
5:53 am 05:53 Sunny 53 11.7 50 10 89 89 SE 6 9 30.12 1020 10 16 0.00 0.00
6:53 am 06:53 Sunny 59 15 53 11.7 81 81 ENE 3 6 30.12 1020 10 16 0.00 0.00
7:53 am 07:53 Sunny 67 19.4 54 12.2 63 63 Calm 30.11 1020 10 16 0.00 0.00
8:53 am 08:53 Sunny 71 21.7 54 12.2 55 55 Calm 30.11 1020 10 16 0.00 0.00
9:53 am 09:53 Sunny 77 25 54 12.2 45 45 E 3 6 30.10 1019 10 16 0.00 0.00
10:53 am 10:53 Sunny 83 28.3 54 12.2 37 37 VRB 5 7 30.08 1019 10 16 0.00 0.00
11:53 am 11:53 Sunny 87 30.6 49 9.4 27 27 undefined N/A 30.05 1018 10 16 0.00 0.00
12:53 pm 12:53 Sunny 89 31.7 44 6.7 21 21 undefined N/A 30.04 1017 10 16 0.00 0.00
1:53 pm 13:53 Sunny 90 32.2 44 6.7 20 20 VRB 6 9 30.01 1016 10 16 0.00 0.00
2:53 pm 14:53 Sunny 92 33.3 40 4.4 16 16 SSE 8 13 29.99 1016 10 16 0.00 0.00
3:53 pm 15:53 Sunny 93 33.9 38 3.3 14 14 ESE 5 7 29.97 1015 10 16 0.00 0.00
4:53 pm 16:53 Sunny 94 34.4 34 1.1 12 12 WSW 9 15 29.96 1015 10 16 0.00 0.00
5:53 pm 17:53 Sunny 93 33.9 32 0 11 11 VRB 3 6 29.95 1014 10 16 0.00 0.00
6:53 pm 18:53 Sunny 93 33.9 37 2.8 14 14 S 6 9 29.92 1013 10 16 0.00 0.00
7:53 pm 19:53 Sunny 92 33.3 42 5.6 18 18 SSE 7 11 29.90 1012 10 16 0.00 0.00
8:53 pm 20:53 Sunny 82 27.8 54 12.2 38 38 ESE 7 11 29.89 1012 10 16 0.00 0.00
9:53 pm 21:53 Clear 75 23.9 48 8.9 39 39 E 6 9 29.90 1012 10 16 0.00 0.00

Powered by AerisWeather